Regional Weather Roundup
Issued by NWS

Home | Current Version | Previous Version | Text Only | Print | Product List | Glossary Off
Versions: 1 2 3 4 5 6 7 8 9 10 11 12 13 14 15 16 17 18 19 20 21 22 23 24 25 26 27 28 29 30 31 32 33 34 35 36 37 38 39 40 41 42 43 44 45 46 47 48 49 50

000
ASUS43 KDTX 270501
RWRMI
MICHIGAN HOURLY REGIONAL WEATHER ROUNDUP
NATIONAL WEATHER SERVICE DETROIT/PONTIAC MI
1200 AM EST FRI FEB 27 2015

NOTE: "FAIR" INDICATES FEW OR NO CLOUDS BELOW 12,000 FEET WITH NO
SIGNIFICANT WEATHER AND/OR OBSTRUCTION TO VISIBILITY.

MIZ047>049-052>055-059>063-066>070-074>076-081>083-270600-
SOUTHEAST LOWER MICHIGAN

CITY           SKY/WX    TMP DP  RH WIND       PRES   REMARKS
ADRIAN         CLEAR      1  -5  75 N3        30.35R
ALMA           CLEAR     -1 -11  60 NW5       30.37R WCI -11
ANN ARBOR      CLEAR     -6  -9  86 CALM      30.34R
BAD AXE        MOCLDY    -9 -12  83 CALM      30.35R
CARO           PTCLDY   -10 -15  77 CALM      30.35R
DETROIT CITY   CLEAR      8  -4  58 N5        30.35R WCI   0
DETROIT        PTCLDY     7  -1  70 CALM      30.36R
FLINT          CLEAR     -3  -9  75 CALM      30.34R
GROSSE ILE     CLEAR      3   0  85 NW3       30.35R
HILLSDALE      CLEAR     -2  -6  80 CALM      30.30S
HOWELL         CLEAR     -3  -7  83 CALM      30.32R

CITY           SKY/WX    TMP DP  RH WIND       PRES   REMARKS
JACKSON        CLEAR     -5  -9  83 W5        30.33R WCI -16
LAMBERTVILLE   CLEAR      3  -4  72 CALM      30.36R
LANSING        CLEAR      2 -10  57 NW8       30.36R WCI -12
LAPEER         FAIR     -10 -15  80 CALM      30.34R
MASON          CLEAR     -5  -9  84 CALM      30.34R
MONROE         CLEAR      1  -2  85 CALM      30.34R
MT. CLEMENS    CLEAR      4  -4  69 NW5       30.33R WCI  -6
PONTIAC        MOCLDY    -2  -6  83 CALM      30.31R
PORT HOPE        N/A      4  -6  63 NW9       30.34R WCI -10
PORT HURON     CLEAR      0  -4  85 NW5       30.35R WCI -10
TRI CITIES     CLEAR      2  -9  60 NW10      30.37S WCI -14
TROY           CLEAR      6  -4  62 CALM      30.36R
SAGINAW HB     CLEAR      1  -4  78 W6        30.37R WCI -10
$$
MIZ043>046-050>051-056>058-064>065-071>073-077>080-270600-
SOUTHWEST LOWER MICHIGAN

CITY           SKY/WX    TMP DP  RH WIND       PRES   REMARKS
BATTLE CREEK   CLEAR      0  -9  65 CALM      30.34R
BENTON HARBOR  CLOUDY     7  -5  57 NE5       30.39R WCI  -2
BIG RAPIDS     CLEAR     -6 -13  70 CALM      30.35R
COLDWATER      CLEAR     -6 -11  80 CALM      30.33S
FREMONT        FAIR      -3 -14  59 CALM      30.38R
HOLLAND        CLEAR      4  -8  57 NE5       30.40R WCI  -5
GRAND RAPIDS   CLEAR      3 -10  54 N7        30.37R WCI  -9
IONIA          FAIR       2 -10  57 N7        30.36R WCI -10
KALAMAZOO      CLEAR      0 -10  63 NW6       30.36R WCI -12
LUDINGTON      PTCLDY    -3 -10  71 CALM      30.39S
MARSHALL       CLEAR     -8 -12  84 CALM      30.33R
MOUNT PLEASANT CLEAR     -2 -12  64 CALM      30.37R
MUSKEGON       CLEAR      3 -10  54 E5        30.40S WCI  -6
SOUTH HAVEN    CLEAR      5  -8  53 NE5       30.38F WCI  -4
$$
MIZ016>042-270600-
NORTHERN LOWER MICHIGAN

CITY           SKY/WX    TMP DP  RH WIND       PRES   REMARKS
ALPENA         CLEAR     -5 -12  72 W6        30.34S WCI -18
BEAVER ISLAND  CLEAR    -14 -18  80 CALM      30.36S
BELLAIRE       CLEAR    -16 -21  76 CALM      30.40S
CADILLAC       CLEAR    -17 -25  68 CALM      30.29S
CHARLEVOIX     MOCLDY   -12 -17  80 CALM      30.40S
FRANKFORT      FAIR      -8 -14  76 CALM      30.38S
GAYLORD        CLEAR    -15 -20  78 W3        30.28S
GRAYLING       CLEAR    -22 -29  70 CALM      30.31S
HARBOR SPRINGS CLEAR    -11 -15  81 CALM      30.35S
HOUGHTON LAKE  CLEAR    -11 -17  75 CALM      30.32R
MANISTEE       CLEAR     -9 -13  84 CALM      30.38R
OSCODA         CLEAR     -7 -15  65 W7        30.35R WCI -21
PELLSTON       CLEAR    -18 -24  74 CALM      30.36S
ROGERS CITY    CLEAR     -2  -8  77 W6        30.35S WCI -14
TRAVERSE CITY  CLEAR    -14 -19  79 CALM      30.37S
$$
MIZ007>008-015-270600-
EASTERN UPPER MICHIGAN

CITY           SKY/WX    TMP DP  RH WIND       PRES   REMARKS
KINROSS        MOCLDY    -6  -8  92 W6        30.31S WCI -18
MACKINAC ISLAN CLEAR     -2  -8  74 W9        30.33S WCI -18
NEWBERRY       CLEAR    -10 -11  93 SW7       30.31S WCI -25
S. S. MARIE    LGT SNOW  -1  -6  79 W8        30.30S WCI -15
MUNISING         N/A    -11 -17  75 S8        30.34F WCI -28
$$
MIZ004>006-011>014-085-270600-
CENTRAL UPPER MICHIGAN

CITY           SKY/WX    TMP DP  RH WIND       PRES   REMARKS
MANISTIQUE     PTCLDY    -8 -11  86 W3        30.35S
ESCANABA       CLEAR     -9 -17  70 W6        30.38F WCI -23
MENOMINEE      CLEAR     -2  -6  84 CALM      30.39R
SAWYER-GWINN   CLEAR     -7 -13  76 W7        30.28F WCI -21
$$
MIZ001>003-009>011-084-270600-
WESTERN UPPER MICHIGAN

CITY           SKY/WX    TMP DP  RH WIND       PRES   REMARKS
IRON MOUNTAIN  CLEAR     -9 -16  71 CALM      30.30F
HOUGHTON       CLEAR     -5 -11  75 NW10      30.28F WCI -23
COPPER HARBOR    N/A      5  -4  66 N12       30.31S WCI -11
IRONWOOD       CLEAR     -9 -20  59 W3        30.31S
$$

ABBREVIATIONS USED IN REMARKS
   TC - TEMPERATURE IN CELSIUS
  WCI - WIND CHILL INDEX
   HX - HEAT INDEX
  VSB - VISIBILITY



USA.gov is the U.S. government's official web portal to all federal, state and local government web resources and services.